星链-5243 (STARLINK-5243 )

导读

STARLINK-5243是美国太空探索技术公司(SpaceX)旗下星链(Starlink)互联网星座的第五代卫星,于2022年10月28日发射升空。作为低轨通信卫星,它属于星链大规模组网的一部分,采用平板设计、氪工质霍尔推进器,支持Ku/Ka波段通信,旨在为全球提供高速宽带互联网服务,目前已正常在轨运行近3年半。

基本信息
目录编号:
54167
目录名称:
STARLINK-5243
国际标识:
2022-141L
轨道中心:
EARTH
卫星名称:
星链-5243
卫星全名:
星链-5243 (STARLINK-5243 )
卫星状态:
在轨 (已飞行1326 天)
发射日期:
2022-10-28 UTC
国别 :
美国 (US)
星等 :
--
轨道信息
数据来源 国际轨道数据 AOE轨道数据
星历时间 2026-06-14T22:53:46+0800
15小时前
查看轨道信息
2026-06-12T15:00:00+0800
2天前
查看轨道信息
半长轴 6917.91km 6917.902km
偏心率 0.0001255 0.0001336
轨道倾角 53.160° 53.160°
近地点辐角 88.547° 72.933°
升交点赤经 298.679° 309.151°
平近点角 271.566° 229.608°
近地点 538.904km 538.84km
远地点 540.642km 540.69km
周期 95.438分钟 95.438分钟
每日圈数 15.088305 15.08833
详细信息
固有亮度:
5
最大亮度:
2.5
卫星平台:
Starlink v1.5
覆盖范围:
全球
运营商:
太空探索技术公司
运营商所在国:
美国
制造商(研发单位):
太空探索技术公司
制造商所在国:
美国
使用方式:
暂无
卫星简介
星链(Starlink)计划是由太空探索技术公司(SpaceX)提出的一个巨型低轨卫星互联网星座项目,计划在2019年至2024年间在太空搭建由约1.2万颗卫星组成的“星链”网络,其中1584颗将部署在地球上空550千米处的近地轨道,并从2020年开始工作。该卫星仍在工作。
2D轨道图
3D轨道图
轨道高度分析图
轨道倾角分析图
轨道综合分析图
查看轨道综合分析图